Flag for Turkey Weather past 2 weeks in Istanbul, Turkey

Now
72 °F

Passing clouds.


Feels Like: 76 °F
Forecast: 65 / 74 °F
Wind: 14 mph from Northeast

Location: Istanbul Ataturk Airport

Current Time: Sep 19, 2014 at 7:36:49 PM

Latest Report: Sep 19, 2014 at 6:50 PM


Visibility: N/A

Pressure: 30.18 "Hg

Humidity: 57%

Dew point: 55 °F

Location of IstanbulLocation

Historic Weather in Istanbul — Graph

°F

Istanbul temperature yesterday

Maximum temperature yesterday: 68 °F (at 12:20 AM)
Minimum temperature yesterday: 61 °F (at 5:50 AM)
Average temperature yesterday: 66 °F

Past Weeks' High & Low Weather Summary

 TemperatureHumidityPressure
High84 °F (Sep 5, 3:20 PM)94% (Sep 9, 6:20 AM)30.18 "Hg (Sep 9, 6:20 AM)
Low61 °F (Sep 18, 5:50 AM)20% (Sep 10, 2:20 PM)29.68 "Hg (Sep 6, 4:20 AM)
Average74 °F68%29.91 "Hg
* Reported Sep 4 6:20 PM — Sep 19 6:20 PM, Istanbul, Weather by CustomWeather, © 2014

Note: Actual official high and low records may vary slightly from our data, if they occured in-between our weather recording intervals... More about our weather records

Advertising

Istanbul weather history for previous 24 hours

 ConditionsComfort  
Time TempWeatherWind HumidityBarometerVisibility
6:20 PM
Sep 19
72 °FPassing clouds.14 mph53%30.18 "HgN/A
5:50 PM72 °FPassing clouds.17 mph57%30.15 "HgN/A
5:20 PM72 °FPassing clouds.20 mph53%30.15 "HgN/A
4:50 PM72 °FScattered clouds.17 mph57%30.15 "HgN/A
4:20 PM72 °FScattered clouds.16 mph50%30.15 "HgN/A
3:50 PM73 °FScattered clouds.16 mph47%30.15 "HgN/A
3:20 PM73 °FScattered clouds.15 mph50%30.15 "HgN/A
2:50 PM75 °FScattered clouds.14 mph41%30.15 "HgN/A
2:20 PM73 °FScattered clouds.13 mph50%30.15 "HgN/A
1:50 PM73 °FScattered clouds.15 mph47%30.15 "HgN/A
1:20 PM73 °FScattered clouds.15 mph50%30.15 "HgN/A
12:50 PM73 °FScattered clouds.14 mph47%30.18 "HgN/A
12:20 PM73 °FScattered clouds.13 mph47%30.15 "HgN/A
11:50 AM72 °FScattered clouds.14 mph47%30.15 "HgN/A
11:20 AM72 °FScattered clouds.14 mph53%30.18 "HgN/A
10:50 AM72 °FScattered clouds.13 mph50%30.15 "HgN/A
10:20 AM72 °FScattered clouds.13 mph50%30.15 "HgN/A
9:50 AM72 °FScattered clouds.12 mph57%30.15 "HgN/A
9:20 AM70 °FScattered clouds.9 mph64%30.15 "HgN/A
8:50 AM70 °FScattered clouds.7 mph64%30.15 "HgN/A
8:20 AM68 °FScattered clouds.7 mph69%30.12 "HgN/A
7:50 AM66 °FScattered clouds.8 mph78%30.12 "HgN/A
7:20 AM64 °FPartly cloudy.8 mph83%30.12 "HgN/A
6:50 AM64 °FSprinkles. Passing clouds.10 mph83%30.09 "HgN/A
6:20 AM64 °FSprinkles. Partly cloudy.14 mph83%30.09 "HgN/A
5:50 AM64 °FPartly cloudy.9 mph83%30.09 "HgN/A
5:20 AM64 °FPassing clouds.9 mph83%30.09 "HgN/A
4:50 AM64 °FPassing clouds.8 mph83%30.09 "HgN/A
4:20 AM64 °FPassing clouds.6 mph83%30.09 "HgN/A
3:50 AM64 °FPassing clouds.9 mph83%30.09 "HgN/A
3:20 AM64 °FPassing clouds.12 mph83%30.09 "HgN/A
2:50 AM64 °FPartly cloudy.10 mph83%30.09 "HgN/A
2:20 AM66 °FPassing clouds.6 mph83%30.09 "HgN/A
1:50 AM66 °FPassing clouds.5 mph83%30.09 "HgN/A
1:20 AM66 °FPartly cloudy.2 mph83%30.09 "HgN/A
12:50 AM66 °FPartly cloudy.1 mph83%30.09 "HgN/A
12:20 AM64 °FPartly cloudy.2 mph88%30.09 "HgN/A
11:50 PM
Sep 18
64 °FPartly cloudy.3 mph88%30.09 "HgN/A
11:20 PM64 °FPartly cloudy.3 mph83%30.09 "HgN/A
10:50 PM64 °FPartly cloudy.3 mph83%30.09 "HgN/A
10:20 PM64 °FPartly cloudy.5 mph83%30.09 "HgN/A
9:50 PM64 °FPassing clouds.6 mph83%30.09 "HgN/A
9:20 PM66 °FPassing clouds.7 mph78%30.09 "HgN/A
8:50 PM64 °FSprinkles. Passing clouds.7 mph83%30.09 "HgN/A
8:20 PM64 °FSprinkles. Passing clouds.6 mph83%30.09 "HgN/A
7:50 PM66 °FSprinkles. Partly sunny.9 mph73%30.09 "HgN/A
7:20 PM64 °FSprinkles. Broken clouds.14 mph83%30.07 "Hg5 mi
Weather by CustomWeather, © 2014

See weather overviewHow to use our weather pages